Location: Unspecified
(40.7945°N, 111.1337°W)
Time: 03:16:21
(UTC-06:00)

Vanguard 1 - Pass Details

Date: 04 July 2019
Orbit: 653 x 3830 km, 34.3° (Epoch: 20 July)

Event Time Altitude Azimuth Distance (km) Brightness Sun altitude
Rises 03:18:20 0° 263° (W) 7,959 14.4 -21.4°
Reaches altitude 10° 03:23:52 10° 262° (W) 6,920 14.0 -20.9°
Maximum altitude 03:46:22 70° 185° (S) 3,160 12.3 -18.8°
Drops below altitude 10° 04:00:11 10° 105° (ESE) 4,541 13.7 -17.3°
Sets 04:02:59 0° 103° (ESE) 5,211 14.1 -17.0°
